User: anonymous
Location: Caltech
(34.1382°N, 118.1253°W)
Time: 08:07:09
(UTC-07:00)
Language:

SEDSat Delta rocket - Orbit

View from above orbital plane
View from above orbital plane
View from above satellite
View from above satellite

Ground track
Ground track

The orbit data is extracted from the following two-line orbital elements,

1 25510U 98061C   14237.44910793  .00000977  00000-0  16422-3 0  9396
2 25510 031.4339 265.0426 0332988 342.1205 120.5069 14.35815491829545
Epoch (UTC): 25 August 2014 10:46:42
Eccentricity: 0.0332988
inclination: 31.4339°
perigee height: 534 km
apogee height: 1010 km
right ascension of ascending node: 265.0426°
argument of perigee: 342.1205°
revolutions per day: 14.35815491
mean anomaly at epoch: 120.5069°
orbit number at epoch: 82954

The dashed part of the orbit path shows where the satellite is in the earth's shadow,  

DLR